Weather Roundup
Issued by NWS

Home | Current Version | Previous Version | Text Only | Print | Product List | Glossary On
Versions: 1 2 3 4 5 6 7 8 9 10 11 12 13 14 15 16 17 18 19 20 21 22 23 24 25 26 27 28 29 30 31 32 33 34 35 36 37 38 39 40 41 42 43 44 45 46 47 48 49 50
000
NZUS93 KARX 210359
HRRWXR

CURRENT HOURLY OBSERVATIONS ACROSS
MUCH OF THE UPPER MISSISSIPPI VALLEY
NATIONAL WEATHER SERVICE LA CROSSE WI
1000 PM CST SAT DEC 20 2014


...SOUTHEAST MINNESOTA...


CITY           SKY/WX    TMP DP  RH WIND       PRES   REMARKS
ROCHESTER      CLOUDY    30  27  88 SE9       30.10F WCI  22
ROCHESTER/MAYO CLOUDY    31  27  86 SE5       30.10F WCI  26
WINONA         CLOUDY    34  32  93 S3        30.16S FOG
AUSTIN         CLOUDY    30  28  93 S7        30.08F FOG     WCI  23
ALBERT LEA     CLOUDY    30  30 100 S9        30.07F FOG     WCI  22
DODGE CENTER   CLOUDY    30  28  93 S9        30.08F WCI  22
PRESTON        CLOUDY    29  28  96 SE6       30.11F FOG     WCI  23
OWATONNA       MOCLDY    30  27  86 SE9       30.08F WCI  22
FARIBAULT      CLOUDY    30  27  86 SE9       30.09F WCI  22
$$

...ELSEWHERE IN MINNESOTA...


CITY           SKY/WX    TMP DP  RH WIND       PRES   REMARKS
MINNEAPOLIS    CLOUDY    31  26  82 SE10      30.09F WCI  22
INTNL FALLS    CLOUDY    29  27  92 S6        29.96F WCI  23
DULUTH         CLOUDY    30  25  81 S14       30.04S WCI  19
RED WING       CLOUDY    34  28  80 S10G17    30.12S WCI  26
REDWOOD FALLS  CLOUDY    32  29  88 S14       30.01F WCI  22
MANKATO        CLOUDY    30  27  86 S8        30.06F WCI  23
WORTHINGTON    CLOUDY    30  28  93 S14G23    29.99F WCI  20
FAIRMONT       CLOUDY    32  28  86 S16G23    30.03F WCI  21
$$

...SOUTHWEST WISCONSIN...


CITY           SKY/WX    TMP DP  RH WIND       PRES   REMARKS
LA CROSSE      CLOUDY    33  28  81 S7        30.16F WCI  27
PRAIRIE DU CHI CLOUDY    32  28  87 E3        30.18F FOG
BOSCOBEL       LGT SNOW  32  27  81 CALM      30.19F
LONE ROCK      NOT AVBL
PLATTEVILLE    CLOUDY    31  28  90 CALM      30.19F
FORT MC COY    CLOUDY    31  27  84 S6        30.17F FOG     WCI  25
VIROQUA        CLOUDY    29  29 100 SE8       30.14F WCI  21
WIS DELLS      NOT AVBL
$$

...ELSEWHERE IN WISCONSIN...


CITY           SKY/WX    TMP DP  RH WIND       PRES   REMARKS
MILWAUKEE      CLOUDY    31  24  75 SW6       30.24S WCI  25
MADISON        CLOUDY    30  26  85 S7        30.20F WCI  23
GREEN BAY      CLOUDY    29  26  89 S3        30.22F FOG
EAU CLAIRE     CLOUDY    30  28  92 S8        30.13F FOG     WCI  22
BLACK RVR FLS  CLOUDY    31  27  84 S3        30.16F FOG
MEDFORD        CLOUDY    28  26  94 S6        30.13F FOG     WCI  21
WAUSAU         CLOUDY    29  25  85 S5        30.14F WCI  24
WIS RAPIDS     CLOUDY    29  24  82 S3        30.18F
MARSHFIELD     CLOUDY    29  25  85 S8        30.14F FOG     WCI  21
RICE LAKE      CLOUDY    31  27  86 S10       30.13S FOG     WCI  22
$$

...NORTHEAST IOWA...


CITY           SKY/WX    TMP DP  RH WIND       PRES   REMARKS
DECORAH        CLOUDY    30  30 100 SE9       30.13F FOG     WCI  22
MASON CITY     FOG       31  31 100 S14       30.09F VSB 1/4 WCI  21
CHARLES CITY   CLOUDY    32  32 100 SE10      30.13S FOG     WCI  24
OELWEIN        FOG       32  32 100 SE10      30.14F VSB 3/4 WCI  24
$$

...ELSEWHERE IN IOWA...


CITY           SKY/WX    TMP DP  RH WIND       PRES   REMARKS
DES MOINES     CLOUDY    36  34  92 SE10      30.10F FOG     WCI  28
IOWA CITY      CLOUDY    33  33 100 SE7       30.18F FOG     WCI  27
FORT DODGE     CLOUDY    34  28  80 S9G16     30.07S WCI  26
$$

...NORTHERN ILLINOIS...


CITY           SKY/WX    TMP DP  RH WIND       PRES   REMARKS
CHICAGO-OHARE  CLOUDY    32  26  78 S7        30.24F WCI  26
CHICAGO-MIDWAY CLOUDY    34  27  75 S6        30.26F WCI  29
MOLINE         CLOUDY    33  29  85 S8        30.20S FOG     WCI  26
ROCKFORD       CLOUDY    31  26  82 S7        30.24F WCI  24
PEORIA         CLOUDY    36  28  73 S8        30.24S WCI  30
$$

NOTE: "FAIR" INDICATES FEW OR NO CLOUDS BELOW 12,000 FEET WITH NO
SIGNIFICANT WEATHER AND/OR OBSTRUCTIONS TO VISIBILITY. WIND
SPEEDS ARE IN MILES-PER-HOUR.



USA.gov is the U.S. government's official web portal to all federal, state and local government web resources and services.